Location: Carlisle
(34.5501°N, 84.5969°W)
Time: 00:28:35
(UTC+00:00)

PCSat - Visible Passes

Search period start: 31 March 2023 00:00
Search period end: 10 April 2023 00:00
Orbit: 784 x 794 km, 67.1° (Epoch: 30 March)

Date Brightness Start Highest point End Pass type
(mag) Time Alt. Az. Time Alt. Az. Time Alt. Az.
06 Apr 12.4 03:50:56 10° N 03:51:12 11° N 03:51:12 11° N visible
07 Apr 12.2 03:20:13 10° N 03:20:44 12° NNE 03:20:44 12° NNE visible
08 Apr 12.1 02:49:56 10° NNE 02:50:18 11° NNE 02:50:18 11° NNE visible
08 Apr 12.5 04:30:47 10° NNW 04:30:59 11° NNW 04:30:59 11° NNW visible
09 Apr 12.1 03:59:31 10° NNW 04:00:34 16° NNW 04:00:34 16° NNW visible
